Time,TemperatureF,DewpointF,PressureIn,WindDirection,WindDirectionDegrees,WindSpeedMPH,WindSpeedGustMPH,Humidity,HourlyPrecipIn,Conditions,Clouds,dailyrainin,SoftwareType,DateUTC
2013-04-19 00:01:00,49.0,45.0,29.96,WSW,247,6.8,8.2,87,0.00,,,0.00,Rainwise IP-100,2013-04-19 07:01:00,
2013-04-19 00:06:00,48.9,45.0,29.95,WSW,247,4.2,8.4,87,0.00,,,0.00,Rainwise IP-100,2013-04-19 07:06:00,
2013-04-19 00:11:00,48.9,46.0,29.96,SSW,202,6.5,9.8,88,0.00,,,0.00,Rainwise IP-100,2013-04-19 07:11:00,
2013-04-19 00:16:00,49.0,46.0,29.96,SW,225,4.2,9.6,88,0.00,,,0.00,Rainwise IP-100,2013-04-19 07:16:00,
2013-04-19 00:21:00,48.9,46.0,29.96,SW,225,4.9,10.0,88,0.00,,,0.00,Rainwise IP-100,2013-04-19 07:21:00,
2013-04-19 00:26:00,48.8,46.0,29.96,SSW,202,4.4,9.1,88,0.00,,,0.00,Rainwise IP-100,2013-04-19 07:26:00,
2013-04-19 00:31:00,48.7,46.0,29.96,SW,225,8.2,9.1,88,0.00,,,0.00,Rainwise IP-100,2013-04-19 07:31:00,
2013-04-19 00:36:00,48.7,46.0,29.96,WSW,247,3.7,9.1,89,0.00,,,0.00,Rainwise IP-100,2013-04-19 07:36:00,
2013-04-19 00:41:00,48.6,46.0,29.96,SW,225,6.5,9.1,89,0.00,,,0.00,Rainwise IP-100,2013-04-19 07:41:00,
2013-04-19 00:46:00,48.5,46.0,29.96,SW,225,5.6,8.6,89,0.00,,,0.00,Rainwise IP-100,2013-04-19 07:46:00,
2013-04-19 00:51:00,48.5,47.0,29.96,WSW,247,7.0,9.8,90,0.00,,,0.00,Rainwise IP-100,2013-04-19 07:51:00,
2013-04-19 00:56:00,48.4,46.0,29.96,SW,225,3.5,9.6,90,0.00,,,0.00,Rainwise IP-100,2013-04-19 07:56:00,
2013-04-19 01:01:00,48.3,46.0,29.96,SSW,202,4.7,7.5,90,0.00,,,0.00,Rainwise IP-100,2013-04-19 08:01:00,
2013-04-19 01:06:00,48.3,46.0,29.97,SW,225,4.9,9.6,90,0.00,,,0.00,Rainwise IP-100,2013-04-19 08:06:00,
2013-04-19 01:11:00,48.2,46.0,29.96,WSW,247,5.4,9.6,90,0.00,,,0.00,Rainwise IP-100,2013-04-19 08:11:00,
2013-04-19 01:16:00,48.2,46.0,29.96,WSW,247,5.1,10.7,90,0.00,,,0.00,Rainwise IP-100,2013-04-19 08:16:00,
2013-04-19 01:21:00,48.2,46.0,29.96,SW,225,6.3,8.6,91,0.00,,,0.00,Rainwise IP-100,2013-04-19 08:21:00,
2013-04-19 01:26:00,48.3,46.0,29.95,WSW,247,6.3,9.8,91,0.00,,,0.00,Rainwise IP-100,2013-04-19 08:26:00,
2013-04-19 01:31:00,48.4,46.0,29.95,WSW,247,5.6,9.8,90,0.00,,,0.00,Rainwise IP-100,2013-04-19 08:31:00,
2013-04-19 01:36:00,48.5,47.0,29.95,WSW,247,4.0,11.2,90,0.00,,,0.00,Rainwise IP-100,2013-04-19 08:36:00,
2013-04-19 01:41:00,48.5,47.0,29.95,SW,225,3.0,8.9,90,0.00,,,0.00,Rainwise IP-100,2013-04-19 08:41:00,
2013-04-19 01:46:00,48.5,47.0,29.95,WSW,247,2.1,6.1,90,0.00,,,0.00,Rainwise IP-100,2013-04-19 08:46:00,
2013-04-19 01:51:00,48.4,46.0,29.95,WSW,247,3.5,5.6,91,0.00,,,0.00,Rainwise IP-100,2013-04-19 08:51:00,
2013-04-19 01:56:00,48.4,46.0,29.95,WSW,247,3.3,4.4,91,0.00,,,0.00,Rainwise IP-100,2013-04-19 08:56:00,
2013-04-19 02:01:00,48.4,46.0,29.95,South,180,1.6,5.4,91,0.00,,,0.00,Rainwise IP-100,2013-04-19 09:01:00,
2013-04-19 02:06:00,48.5,47.0,29.95,WSW,247,2.6,3.0,91,0.00,,,0.00,Rainwise IP-100,2013-04-19 09:06:00,
2013-04-19 02:11:00,48.6,47.0,29.95,SW,225,1.9,3.3,90,0.00,,,0.00,Rainwise IP-100,2013-04-19 09:11:00,
2013-04-19 02:16:00,48.5,47.0,29.95,SW,225,2.8,4.0,90,0.00,,,0.00,Rainwise IP-100,2013-04-19 09:16:00,
2013-04-19 02:21:00,48.5,47.0,29.94,WSW,247,1.9,3.7,90,0.00,,,0.00,Rainwise IP-100,2013-04-19 09:21:00,
2013-04-19 02:26:00,48.7,46.0,29.95,West,270,3.5,4.2,89,0.00,,,0.00,Rainwise IP-100,2013-04-19 09:26:00,
2013-04-19 02:31:00,48.7,46.0,29.95,West,270,2.1,4.4,89,0.00,,,0.00,Rainwise IP-100,2013-04-19 09:31:00,
2013-04-19 02:36:00,48.4,45.0,29.95,WSW,247,4.4,6.1,89,0.00,,,0.00,Rainwise IP-100,2013-04-19 09:36:00,
2013-04-19 02:41:00,48.4,46.0,29.95,WSW,247,11.0,11.2,90,0.00,,,0.00,Rainwise IP-100,2013-04-19 09:41:00,
2013-04-19 02:46:00,48.4,46.0,29.95,WSW,247,4.0,12.1,90,0.00,,,0.00,Rainwise IP-100,2013-04-19 09:46:00,
2013-04-19 02:51:00,48.5,47.0,29.95,WSW,247,4.9,8.4,91,0.00,,,0.00,Rainwise IP-100,2013-04-19 09:51:00,
2013-04-19 02:56:00,48.7,47.0,29.95,WSW,247,5.1,8.4,90,0.00,,,0.00,Rainwise IP-100,2013-04-19 09:56:00,
2013-04-19 03:01:00,48.6,47.0,29.94,WSW,247,4.7,7.2,90,0.00,,,0.00,Rainwise IP-100,2013-04-19 10:01:00,
2013-04-19 03:06:00,48.4,46.0,29.94,WSW,247,4.4,7.2,90,0.00,,,0.00,Rainwise IP-100,2013-04-19 10:06:00,
2013-04-19 03:11:00,48.4,46.0,29.95,West,270,3.5,9.6,91,0.00,,,0.00,Rainwise IP-100,2013-04-19 10:11:00,
2013-04-19 03:16:00,48.3,46.0,29.95,WSW,247,4.9,7.0,91,0.00,,,0.00,Rainwise IP-100,2013-04-19 10:16:00,
2013-04-19 03:21:00,48.4,46.0,29.95,WSW,247,3.0,8.6,91,0.00,,,0.00,Rainwise IP-100,2013-04-19 10:21:00,
2013-04-19 03:26:00,48.5,47.0,29.94,West,270,4.2,9.3,91,0.00,,,0.00,Rainwise IP-100,2013-04-19 10:26:00,
2013-04-19 03:31:00,48.6,47.0,29.95,WSW,247,3.5,8.2,91,0.00,,,0.00,Rainwise IP-100,2013-04-19 10:31:00,
2013-04-19 03:36:00,48.5,47.0,29.94,WSW,247,5.4,9.1,91,0.00,,,0.00,Rainwise IP-100,2013-04-19 10:36:00,
2013-04-19 03:41:00,48.3,46.0,29.95,SW,225,4.0,8.2,91,0.00,,,0.00,Rainwise IP-100,2013-04-19 10:41:00,
2013-04-19 03:46:00,48.1,46.0,29.95,SW,225,4.9,9.8,92,0.00,,,0.00,Rainwise IP-100,2013-04-19 10:46:00,
2013-04-19 03:51:00,48.1,46.0,29.95,WSW,247,3.5,9.3,92,0.00,,,0.00,Rainwise IP-100,2013-04-19 10:51:00,
2013-04-19 03:56:00,48.0,46.0,29.95,WSW,247,4.7,9.8,92,0.00,,,0.00,Rainwise IP-100,2013-04-19 10:56:00,
2013-04-19 04:01:00,47.9,46.0,29.95,SW,225,4.7,8.4,92,0.00,,,0.00,Rainwise IP-100,2013-04-19 11:01:00,
2013-04-19 04:06:00,47.7,46.0,29.95,SW,225,5.1,7.7,93,0.00,,,0.00,Rainwise IP-100,2013-04-19 11:06:00,
2013-04-19 04:11:00,47.7,46.0,29.95,SSW,202,4.4,9.6,93,0.00,,,0.00,Rainwise IP-100,2013-04-19 11:11:00,
2013-04-19 04:16:00,47.6,46.0,29.95,SSW,202,3.7,7.9,93,0.00,,,0.00,Rainwise IP-100,2013-04-19 11:16:00,
2013-04-19 04:21:00,47.4,46.0,29.95,SW,225,2.6,8.2,94,0.00,,,0.00,Rainwise IP-100,2013-04-19 11:21:00,
2013-04-19 04:26:00,47.5,46.0,29.96,WSW,247,2.1,7.7,94,0.00,,,0.00,Rainwise IP-100,2013-04-19 11:26:00,
2013-04-19 04:31:00,47.5,46.0,29.95,WSW,247,4.4,8.2,94,0.00,,,0.00,Rainwise IP-100,2013-04-19 11:31:00,
2013-04-19 04:36:00,47.4,46.0,29.95,WSW,247,4.7,7.0,94,0.00,,,0.00,Rainwise IP-100,2013-04-19 11:36:00,
2013-04-19 04:41:00,47.4,46.0,29.95,WSW,247,2.3,7.5,94,0.00,,,0.00,Rainwise IP-100,2013-04-19 11:41:00,
2013-04-19 04:46:00,47.5,46.0,29.95,SSW,202,4.9,7.2,94,0.00,,,0.00,Rainwise IP-100,2013-04-19 11:46:00,
2013-04-19 04:48:00,47.5,46.0,29.95,SW,225,4.2,7.2,94,0.00,,,0.00,Rainwise IP-100,2013-04-19 11:48:00,
2013-04-19 04:53:00,47.6,46.0,29.96,WSW,247,4.9,8.6,94,0.00,,,0.00,Rainwise IP-100,2013-04-19 11:53:00,
2013-04-19 04:58:00,47.6,46.0,29.95,WSW,247,6.1,9.8,94,0.00,,,0.00,Rainwise IP-100,2013-04-19 11:58:00,
2013-04-19 05:03:00,47.5,46.0,29.95,SW,225,1.6,7.0,94,0.00,,,0.00,Rainwise IP-100,2013-04-19 12:03:00,
2013-04-19 05:08:00,47.6,46.0,29.95,SSW,202,4.2,8.6,94,0.00,,,0.00,Rainwise IP-100,2013-04-19 12:08:00,
2013-04-19 05:13:00,47.7,46.0,29.95,West,270,5.1,8.4,94,0.00,,,0.00,Rainwise IP-100,2013-04-19 12:13:00,
2013-04-19 05:18:00,48.1,47.0,29.95,WSW,247,5.8,7.9,93,0.00,,,0.00,Rainwise IP-100,2013-04-19 12:18:00,
2013-04-19 05:23:00,48.6,47.0,29.95,SW,225,3.3,7.5,92,0.00,,,0.00,Rainwise IP-100,2013-04-19 12:23:00,
2013-04-19 05:28:00,48.8,47.0,29.95,SW,225,0.0,4.4,91,0.00,,,0.00,Rainwise IP-100,2013-04-19 12:28:00,
2013-04-19 05:33:00,48.5,47.0,29.95,SW,225,0.0,0.0,91,0.00,,,0.00,Rainwise IP-100,2013-04-19 12:33:00,
2013-04-19 05:38:00,48.1,46.0,29.95,East,90,0.0,0.0,91,0.00,,,0.00,Rainwise IP-100,2013-04-19 12:38:00,
2013-04-19 05:43:00,47.8,46.0,29.94,East,90,0.0,0.0,91,0.00,,,0.00,Rainwise IP-100,2013-04-19 12:43:00,
2013-04-19 05:48:00,47.5,45.0,29.95,East,90,0.0,0.0,91,0.00,,,0.00,Rainwise IP-100,2013-04-19 12:48:00,
2013-04-19 05:53:00,47.4,45.0,29.95,East,90,0.0,0.0,91,0.00,,,0.00,Rainwise IP-100,2013-04-19 12:53:00,
2013-04-19 05:58:00,47.3,45.0,29.96,WNW,292,3.3,0.0,92,0.00,,,0.00,Rainwise IP-100,2013-04-19 12:58:00,
2013-04-19 06:03:00,47.3,45.0,29.96,WSW,247,2.3,4.0,92,0.00,,,0.00,Rainwise IP-100,2013-04-19 13:03:00,
2013-04-19 06:08:00,47.7,46.0,29.96,WSW,247,2.6,4.0,93,0.00,,,0.00,Rainwise IP-100,2013-04-19 13:08:00,
2013-04-19 06:13:00,47.8,47.0,29.96,WSW,247,1.9,3.5,93,0.00,,,0.00,Rainwise IP-100,2013-04-19 13:13:00,
2013-04-19 06:18:00,47.8,47.0,29.96,WSW,247,0.0,2.1,93,0.00,,,0.00,Rainwise IP-100,2013-04-19 13:18:00,
2013-04-19 06:23:00,47.4,46.0,29.96,WSW,247,0.0,0.0,93,0.00,,,0.00,Rainwise IP-100,2013-04-19 13:23:00,
2013-04-19 06:28:00,47.4,46.0,29.96,West,270,3.3,3.3,93,0.00,,,0.00,Rainwise IP-100,2013-04-19 13:28:00,
2013-04-19 06:33:00,47.7,46.0,29.96,WSW,247,1.9,4.4,93,0.00,,,0.00,Rainwise IP-100,2013-04-19 13:33:00,
2013-04-19 06:38:00,47.9,47.0,29.96,WSW,247,1.6,3.7,93,0.00,,,0.00,Rainwise IP-100,2013-04-19 13:38:00,
2013-04-19 06:43:00,48.0,47.0,29.96,WSW,247,1.4,3.3,93,0.00,,,0.00,Rainwise IP-100,2013-04-19 13:43:00,
2013-04-19 06:48:00,48.1,46.0,29.96,West,270,1.6,4.4,92,0.00,,,0.00,Rainwise IP-100,2013-04-19 13:48:00,
2013-04-19 06:53:00,48.3,46.0,29.96,WSW,247,0.0,3.7,92,0.00,,,0.00,Rainwise IP-100,2013-04-19 13:53:00,
2013-04-19 06:58:00,48.5,47.0,29.96,WSW,247,0.0,2.1,92,0.00,,,0.00,Rainwise IP-100,2013-04-19 13:58:00,
2013-04-19 07:03:00,48.6,47.0,29.96,WSW,247,0.0,0.0,92,0.00,,,0.00,Rainwise IP-100,2013-04-19 14:03:00,
2013-04-19 07:08:00,48.7,47.0,29.96,WSW,247,1.9,4.0,91,0.00,,,0.00,Rainwise IP-100,2013-04-19 14:08:00,
2013-04-19 07:13:00,48.9,47.0,29.96,WSW,247,0.0,4.2,91,0.00,,,0.00,Rainwise IP-100,2013-04-19 14:13:00,
2013-04-19 07:18:00,49.1,47.0,29.97,West,270,1.9,1.9,90,0.00,,,0.00,Rainwise IP-100,2013-04-19 14:18:00,
2013-04-19 07:23:00,49.3,47.0,29.97,West,270,2.6,2.8,90,0.00,,,0.00,Rainwise IP-100,2013-04-19 14:23:00,
2013-04-19 07:28:00,49.5,47.0,29.97,West,270,2.3,3.7,90,0.00,,,0.00,Rainwise IP-100,2013-04-19 14:28:00,
2013-04-19 07:33:00,49.6,47.0,29.97,WSW,247,1.4,3.3,90,0.00,,,0.00,Rainwise IP-100,2013-04-19 14:33:00,
2013-04-19 07:38:00,49.8,47.0,29.96,WSW,247,0.0,1.6,90,0.00,,,0.00,Rainwise IP-100,2013-04-19 14:38:00,
2013-04-19 07:43:00,50.1,47.0,29.97,West,270,2.8,4.0,89,0.00,,,0.00,Rainwise IP-100,2013-04-19 14:43:00,
2013-04-19 07:48:00,50.3,47.5,29.98,WSW,247,4.2,5.4,88,0.00,,,0.00,Rainwise IP-100,2013-04-19 14:48:00,
2013-04-19 07:53:00,50.3,47.5,29.98,WSW,247,3.3,6.5,88,0.00,,,0.00,Rainwise IP-100,2013-04-19 14:53:00,
2013-04-19 07:58:00,50.2,47.0,29.98,SW,225,3.5,7.5,88,0.00,,,0.00,Rainwise IP-100,2013-04-19 14:58:00,
2013-04-19 08:03:00,50.1,47.0,29.98,WSW,247,4.9,7.5,89,0.00,,,0.00,Rainwise IP-100,2013-04-19 15:03:00,
2013-04-19 08:08:00,50.2,47.0,29.98,WSW,247,2.1,7.0,89,0.00,,,0.00,Rainwise IP-100,2013-04-19 15:08:00,
2013-04-19 08:13:00,50.4,47.5,29.98,WSW,247,3.5,6.5,89,0.00,,,0.00,Rainwise IP-100,2013-04-19 15:13:00,
2013-04-19 08:18:00,50.7,47.5,29.98,SW,225,2.3,6.3,89,0.00,,,0.00,Rainwise IP-100,2013-04-19 15:18:00,
2013-04-19 08:23:00,51.0,47.5,29.99,West,270,4.4,7.7,88,0.00,,,0.00,Rainwise IP-100,2013-04-19 15:23:00,
2013-04-19 08:28:00,51.2,47.5,29.99,WSW,247,5.6,7.7,88,0.00,,,0.00,Rainwise IP-100,2013-04-19 15:28:00,
2013-04-19 08:33:00,51.1,47.5,29.99,WSW,247,7.0,9.3,88,0.00,,,0.00,Rainwise IP-100,2013-04-19 15:33:00,
2013-04-19 08:38:00,50.9,47.5,29.99,West,270,4.4,7.7,88,0.00,,,0.00,Rainwise IP-100,2013-04-19 15:38:00,
2013-04-19 08:43:00,51.1,47.5,29.98,West,270,2.8,8.6,88,0.00,,,0.00,Rainwise IP-100,2013-04-19 15:43:00,
2013-04-19 08:48:00,51.3,47.5,29.98,WSW,247,7.2,7.9,88,0.00,,,0.00,Rainwise IP-100,2013-04-19 15:48:00,
2013-04-19 08:53:00,51.7,48.0,29.98,WSW,247,1.4,8.2,88,0.00,,,0.00,Rainwise IP-100,2013-04-19 15:53:00,
2013-04-19 08:58:00,52.3,48.0,29.98,WSW,247,4.7,8.4,87,0.00,,,0.00,Rainwise IP-100,2013-04-19 15:58:00,
2013-04-19 09:03:00,52.6,48.0,29.98,WSW,247,4.9,7.9,85,0.00,,,0.00,Rainwise IP-100,2013-04-19 16:03:00,
2013-04-19 09:08:00,53.1,48.0,29.98,SW,225,1.6,5.6,84,0.00,,,0.00,Rainwise IP-100,2013-04-19 16:08:00,
2013-04-19 09:13:00,53.6,48.0,29.98,SW,225,4.9,7.2,83,0.00,,,0.00,Rainwise IP-100,2013-04-19 16:13:00,
2013-04-19 09:18:00,53.8,48.0,29.98,SW,225,4.2,7.9,82,0.00,,,0.00,Rainwise IP-100,2013-04-19 16:18:00,
2013-04-19 09:23:00,53.8,48.0,29.98,West,270,3.7,8.9,82,0.00,,,0.00,Rainwise IP-100,2013-04-19 16:23:00,
2013-04-19 09:28:00,53.6,48.0,29.99,SSW,202,4.4,10.0,83,0.00,,,0.00,Rainwise IP-100,2013-04-19 16:28:00,
2013-04-19 09:33:00,53.5,48.0,29.99,WSW,247,3.7,9.3,83,0.00,,,0.00,Rainwise IP-100,2013-04-19 16:33:00,
2013-04-19 09:38:00,53.3,48.0,29.98,SSW,202,5.1,13.1,83,0.00,,,0.00,Rainwise IP-100,2013-04-19 16:38:00,
2013-04-19 09:43:00,53.7,48.0,29.99,WSW,247,4.0,9.8,83,0.00,,,0.00,Rainwise IP-100,2013-04-19 16:43:00,
2013-04-19 09:48:00,54.1,48.0,29.99,SSW,202,6.5,9.6,82,0.00,,,0.00,Rainwise IP-100,2013-04-19 16:48:00,
2013-04-19 09:53:00,53.9,48.0,29.99,SW,225,6.3,10.3,82,0.00,,,0.00,Rainwise IP-100,2013-04-19 16:53:00,
2013-04-19 09:58:00,53.8,48.0,29.99,SSW,202,4.9,9.6,82,0.00,,,0.00,Rainwise IP-100,2013-04-19 16:58:00,
2013-04-19 10:03:00,54.1,48.0,29.99,WSW,247,4.2,10.0,81,0.00,,,0.00,Rainwise IP-100,2013-04-19 17:03:00,
2013-04-19 10:08:00,54.4,48.0,29.99,SW,225,7.2,7.9,80,0.00,,,0.00,Rainwise IP-100,2013-04-19 17:08:00,
2013-04-19 10:13:00,54.5,48.0,29.99,West,270,5.4,8.4,79,0.00,,,0.00,Rainwise IP-100,2013-04-19 17:13:00,
2013-04-19 10:18:00,54.8,49.0,29.98,WSW,247,3.7,8.9,79,0.00,,,0.00,Rainwise IP-100,2013-04-19 17:18:00,
2013-04-19 10:23:00,55.6,49.0,29.98,SSW,202,6.5,9.1,78,0.00,,,0.00,Rainwise IP-100,2013-04-19 17:23:00,
2013-04-19 10:28:00,55.9,49.0,29.98,WSW,247,10.3,10.3,78,0.00,,,0.00,Rainwise IP-100,2013-04-19 17:28:00,
2013-04-19 10:33:00,55.9,49.0,29.98,SSW,202,7.2,10.3,77,0.00,,,0.00,Rainwise IP-100,2013-04-19 17:33:00,
2013-04-19 10:38:00,55.8,49.0,29.98,SSW,202,2.6,8.9,77,0.00,,,0.00,Rainwise IP-100,2013-04-19 17:38:00,
2013-04-19 10:43:00,55.9,48.0,29.98,WSW,247,6.1,9.1,76,0.00,,,0.00,Rainwise IP-100,2013-04-19 17:43:00,
2013-04-19 10:48:00,56.2,48.0,29.98,West,270,4.7,8.4,76,0.00,,,0.00,Rainwise IP-100,2013-04-19 17:48:00,
2013-04-19 10:53:00,56.5,49.0,29.98,SW,225,4.4,9.3,75,0.00,,,0.00,Rainwise IP-100,2013-04-19 17:53:00,
2013-04-19 10:58:00,56.8,49.0,29.98,SW,225,5.4,8.4,74,0.00,,,0.00,Rainwise IP-100,2013-04-19 17:58:00,
2013-04-19 11:03:00,57.3,49.0,29.98,WSW,247,3.0,7.0,73,0.00,,,0.00,Rainwise IP-100,2013-04-19 18:03:00,
2013-04-19 11:08:00,57.6,49.0,29.98,SSW,202,2.6,7.2,73,0.00,,,0.00,Rainwise IP-100,2013-04-19 18:08:00,
2013-04-19 11:13:00,57.8,49.0,29.98,WSW,247,4.4,7.0,72,0.00,,,0.00,Rainwise IP-100,2013-04-19 18:13:00,
2013-04-19 11:18:00,58.4,49.0,29.98,WNW,292,1.4,6.3,72,0.00,,,0.00,Rainwise IP-100,2013-04-19 18:18:00,
2013-04-19 11:23:00,59.3,50.0,29.98,West,270,2.8,6.3,70,0.00,,,0.00,Rainwise IP-100,2013-04-19 18:23:00,
2013-04-19 11:28:00,60.0,50.0,29.98,SSW,202,1.2,5.4,69,0.00,,,0.00,Rainwise IP-100,2013-04-19 18:28:00,
2013-04-19 11:33:00,60.8,50.5,29.98,WSW,247,4.0,6.3,68,0.00,,,0.00,Rainwise IP-100,2013-04-19 18:33:00,
2013-04-19 11:38:00,61.3,50.0,29.98,SSW,202,4.2,7.2,66,0.00,,,0.00,Rainwise IP-100,2013-04-19 18:38:00,
2013-04-19 11:43:00,61.8,50.0,29.98,WSW,247,3.7,7.0,65,0.00,,,0.00,Rainwise IP-100,2013-04-19 18:43:00,
2013-04-19 11:48:00,62.3,50.0,29.97,WSW,247,4.4,7.7,64,0.00,,,0.00,Rainwise IP-100,2013-04-19 18:48:00,
2013-04-19 11:53:00,62.3,50.0,29.97,West,270,4.2,7.9,63,0.00,,,0.00,Rainwise IP-100,2013-04-19 18:53:00,
2013-04-19 11:58:00,62.6,49.0,29.97,West,270,4.9,8.4,62,0.00,,,0.00,Rainwise IP-100,2013-04-19 18:58:00,
2013-04-19 12:03:00,63.3,50.0,29.97,SSW,202,2.6,6.1,61,0.00,,,0.00,Rainwise IP-100,2013-04-19 19:03:00,
2013-04-19 12:08:00,64.4,50.0,29.97,WSW,247,5.1,9.8,59,0.00,,,0.00,Rainwise IP-100,2013-04-19 19:08:00,
2013-04-19 12:13:00,64.7,49.0,29.97,SW,225,11.7,12.4,57,0.00,,,0.00,Rainwise IP-100,2013-04-19 19:13:00,
2013-04-19 12:18:00,63.2,48.0,29.97,WSW,247,7.0,15.2,59,0.00,,,0.00,Rainwise IP-100,2013-04-19 19:18:00,
2013-04-19 12:23:00,60.5,47.5,29.97,WSW,247,7.5,13.8,63,0.00,,,0.00,Rainwise IP-100,2013-04-19 19:23:00,
2013-04-19 12:28:00,59.0,47.5,29.97,SW,225,5.6,11.9,66,0.00,,,0.00,Rainwise IP-100,2013-04-19 19:28:00,
2013-04-19 12:33:00,59.0,48.0,29.97,West,270,6.3,11.4,68,0.00,,,0.00,Rainwise IP-100,2013-04-19 19:33:00,
2013-04-19 12:38:00,59.0,48.0,29.97,WSW,247,5.8,12.6,68,0.00,,,0.00,Rainwise IP-100,2013-04-19 19:38:00,
2013-04-19 12:43:00,58.8,48.0,29.96,WSW,247,6.3,15.6,68,0.00,,,0.00,Rainwise IP-100,2013-04-19 19:43:00,
2013-04-19 12:48:00,58.7,48.0,29.97,SSW,202,4.2,11.0,68,0.00,,,0.00,Rainwise IP-100,2013-04-19 19:48:00,
2013-04-19 12:53:00,58.1,47.5,29.96,SSW,202,3.7,14.0,68,0.00,,,0.00,Rainwise IP-100,2013-04-19 19:53:00,
2013-04-19 12:58:00,57.7,47.5,29.96,West,270,7.7,11.9,68,0.00,,,0.00,Rainwise IP-100,2013-04-19 19:58:00,
2013-04-19 13:03:00,58.2,47.5,29.96,SSW,202,6.1,11.9,68,0.00,,,0.00,Rainwise IP-100,2013-04-19 20:03:00,
2013-04-19 13:08:00,58.3,47.5,29.96,West,270,7.2,13.8,68,0.00,,,0.00,Rainwise IP-100,2013-04-19 20:08:00,
2013-04-19 13:13:00,57.9,48.0,29.96,SW,225,7.9,12.4,70,0.00,,,0.00,Rainwise IP-100,2013-04-19 20:13:00,
2013-04-19 13:18:00,57.9,49.0,29.95,SSW,202,6.3,11.0,71,0.00,,,0.00,Rainwise IP-100,2013-04-19 20:18:00,
2013-04-19 13:23:00,58.3,49.0,29.95,SW,225,6.1,11.0,71,0.00,,,0.00,Rainwise IP-100,2013-04-19 20:23:00,
2013-04-19 13:28:00,59.0,49.0,29.95,WSW,247,9.8,10.7,70,0.00,,,0.00,Rainwise IP-100,2013-04-19 20:28:00,
2013-04-19 13:33:00,59.1,49.0,29.95,WSW,247,9.3,11.9,69,0.00,,,0.00,Rainwise IP-100,2013-04-19 20:33:00,
2013-04-19 13:38:00,58.9,49.0,29.95,WSW,247,6.3,13.3,69,0.00,,,0.00,Rainwise IP-100,2013-04-19 20:38:00,
2013-04-19 13:43:00,58.5,49.0,29.95,West,270,6.8,14.0,69,0.00,,,0.00,Rainwise IP-100,2013-04-19 20:43:00,
2013-04-19 13:48:00,58.4,48.0,29.95,SW,225,11.7,13.1,70,0.00,,,0.00,Rainwise IP-100,2013-04-19 20:48:00,
2013-04-19 13:53:00,57.8,48.0,29.94,WSW,247,7.7,13.1,70,0.00,,,0.00,Rainwise IP-100,2013-04-19 20:53:00,
2013-04-19 13:58:00,57.2,47.5,29.95,WSW,247,5.4,14.9,71,0.00,,,0.00,Rainwise IP-100,2013-04-19 20:58:00,
2013-04-19 14:03:00,57.7,48.0,29.95,WSW,247,8.9,12.1,71,0.00,,,0.00,Rainwise IP-100,2013-04-19 21:03:00,
2013-04-19 14:08:00,57.7,48.0,29.95,SW,225,6.1,13.5,70,0.00,,,0.00,Rainwise IP-100,2013-04-19 21:08:00,
2013-04-19 14:13:00,57.4,48.0,29.95,SW,225,6.1,14.5,70,0.00,,,0.00,Rainwise IP-100,2013-04-19 21:13:00,
2013-04-19 14:18:00,57.8,48.0,29.95,West,270,8.2,15.4,70,0.00,,,0.00,Rainwise IP-100,2013-04-19 21:18:00,
2013-04-19 14:23:00,57.7,48.0,29.95,SW,225,2.8,13.3,70,0.00,,,0.00,Rainwise IP-100,2013-04-19 21:23:00,
2013-04-19 14:28:00,57.6,48.0,29.94,WSW,247,9.3,14.2,70,0.00,,,0.00,Rainwise IP-100,2013-04-19 21:28:00,
2013-04-19 14:33:00,57.7,47.5,29.94,WSW,247,6.3,14.0,69,0.00,,,0.00,Rainwise IP-100,2013-04-19 21:33:00,
2013-04-19 14:38:00,58.2,47.5,29.94,WSW,247,8.9,12.6,68,0.00,,,0.00,Rainwise IP-100,2013-04-19 21:38:00,
2013-04-19 14:43:00,59.2,48.0,29.93,SW,225,8.9,11.7,67,0.00,,,0.00,Rainwise IP-100,2013-04-19 21:43:00,
2013-04-19 14:48:00,60.0,48.0,29.92,WSW,247,4.7,14.2,65,0.00,,,0.00,Rainwise IP-100,2013-04-19 21:48:00,
2013-04-19 14:53:00,60.6,47.5,29.92,SSW,202,8.2,13.3,63,0.00,,,0.00,Rainwise IP-100,2013-04-19 21:53:00,
2013-04-19 14:58:00,60.8,47.5,29.92,SSW,202,7.0,13.5,62,0.00,,,0.00,Rainwise IP-100,2013-04-19 21:58:00,
2013-04-19 15:03:00,61.2,47.5,29.92,WSW,247,10.0,11.9,61,0.00,,,0.00,Rainwise IP-100,2013-04-19 22:03:00,
2013-04-19 15:08:00,61.5,47.5,29.92,SW,225,10.0,15.4,60,0.00,,,0.00,Rainwise IP-100,2013-04-19 22:08:00,
2013-04-19 15:13:00,60.6,47.0,29.92,WSW,247,7.2,15.6,60,0.00,,,0.00,Rainwise IP-100,2013-04-19 22:13:00,
2013-04-19 15:18:00,60.2,47.0,29.92,SSW,202,9.1,12.1,62,0.00,,,0.00,Rainwise IP-100,2013-04-19 22:18:00,
2013-04-19 15:23:00,59.8,47.5,29.92,SSW,202,9.1,16.8,64,0.00,,,0.00,Rainwise IP-100,2013-04-19 22:23:00,
2013-04-19 15:28:00,58.7,47.5,29.92,SW,225,6.1,16.1,66,0.00,,,0.00,Rainwise IP-100,2013-04-19 22:28:00,
2013-04-19 15:33:00,58.1,47.5,29.92,SW,225,11.4,14.0,68,0.00,,,0.00,Rainwise IP-100,2013-04-19 22:33:00,
2013-04-19 15:38:00,57.2,47.5,29.92,SSW,202,6.3,16.6,71,0.00,,,0.00,Rainwise IP-100,2013-04-19 22:38:00,
2013-04-19 15:43:00,56.7,47.5,29.91,SSW,202,3.7,15.2,72,0.00,,,0.00,Rainwise IP-100,2013-04-19 22:43:00,
2013-04-19 15:48:00,57.2,48.0,29.90,West,270,7.5,14.2,73,0.00,,,0.00,Rainwise IP-100,2013-04-19 22:48:00,
2013-04-19 15:53:00,57.5,49.0,29.90,SW,225,7.9,15.2,72,0.00,,,0.00,Rainwise IP-100,2013-04-19 22:53:00,
2013-04-19 15:58:00,58.1,48.0,29.90,SSW,202,9.6,12.4,70,0.00,,,0.00,Rainwise IP-100,2013-04-19 22:58:00,
2013-04-19 16:03:00,59.8,48.0,29.89,SW,225,6.3,15.2,66,0.00,,,0.00,Rainwise IP-100,2013-04-19 23:03:00,
2013-04-19 16:08:00,60.7,47.5,29.90,WSW,247,7.0,13.8,63,0.00,,,0.00,Rainwise IP-100,2013-04-19 23:08:00,
2013-04-19 16:13:00,59.6,47.5,29.90,SW,225,6.3,18.7,65,0.00,,,0.00,Rainwise IP-100,2013-04-19 23:13:00,
2013-04-19 16:18:00,57.9,47.5,29.89,SW,225,6.3,15.6,68,0.00,,,0.00,Rainwise IP-100,2013-04-19 23:18:00,
2013-04-19 16:23:00,57.0,47.5,29.90,SSW,202,10.7,16.8,71,0.00,,,0.00,Rainwise IP-100,2013-04-19 23:23:00,
2013-04-19 16:28:00,57.1,47.5,29.89,SSW,202,8.2,15.9,71,0.00,,,0.00,Rainwise IP-100,2013-04-19 23:28:00,
2013-04-19 16:33:00,57.2,47.5,29.90,SSW,202,12.8,15.4,71,0.00,,,0.00,Rainwise IP-100,2013-04-19 23:33:00,
2013-04-19 16:38:00,57.2,47.5,29.90,SSW,202,11.7,16.3,71,0.00,,,0.00,Rainwise IP-100,2013-04-19 23:38:00,
2013-04-19 16:43:00,57.2,48.0,29.90,SW,225,7.7,15.2,72,0.00,,,0.00,Rainwise IP-100,2013-04-19 23:43:00,
2013-04-19 16:48:00,57.1,48.0,29.89,SSW,202,7.2,15.6,72,0.00,,,0.00,Rainwise IP-100,2013-04-19 23:48:00,
2013-04-19 16:53:00,57.5,48.0,29.89,SW,225,18.0,18.0,71,0.00,,,0.00,Rainwise IP-100,2013-04-19 23:53:00,
2013-04-19 16:58:00,57.6,48.0,29.89,SW,225,12.6,18.0,71,0.00,,,0.00,Rainwise IP-100,2013-04-19 23:58:00,
2013-04-19 17:03:00,57.6,48.0,29.88,WSW,247,7.7,15.4,71,0.00,,,0.00,Rainwise IP-100,2013-04-20 00:03:00,
2013-04-19 17:08:00,57.6,48.0,29.88,SW,225,6.3,12.8,71,0.00,,,0.00,Rainwise IP-100,2013-04-20 00:08:00,
2013-04-19 17:13:00,57.4,48.0,29.88,SW,225,8.6,14.0,71,0.00,,,0.00,Rainwise IP-100,2013-04-20 00:13:00,
2013-04-19 17:18:00,57.6,48.0,29.88,SW,225,4.4,15.9,71,0.00,,,0.00,Rainwise IP-100,2013-04-20 00:18:00,
2013-04-19 17:23:00,57.9,48.0,29.88,WSW,247,9.3,14.0,70,0.00,,,0.00,Rainwise IP-100,2013-04-20 00:23:00,
2013-04-19 17:28:00,57.8,48.0,29.88,SSW,202,4.4,14.0,70,0.00,,,0.00,Rainwise IP-100,2013-04-20 00:28:00,
2013-04-19 17:33:00,57.7,48.0,29.88,SSW,202,14.9,15.6,70,0.00,,,0.00,Rainwise IP-100,2013-04-20 00:33:00,
2013-04-19 17:38:00,57.3,48.0,29.87,SSW,202,6.5,17.3,70,0.00,,,0.00,Rainwise IP-100,2013-04-20 00:38:00,
2013-04-19 17:43:00,57.2,47.5,29.87,WSW,247,7.5,13.5,71,0.00,,,0.00,Rainwise IP-100,2013-04-20 00:43:00,
2013-04-19 17:48:00,57.5,48.0,29.88,SSW,202,7.5,14.2,71,0.00,,,0.00,Rainwise IP-100,2013-04-20 00:48:00,
2013-04-19 17:53:00,57.6,48.0,29.87,SSW,202,12.1,14.7,71,0.00,,,0.00,Rainwise IP-100,2013-04-20 00:53:00,
2013-04-19 17:58:00,57.7,48.0,29.87,SSW,202,9.1,17.7,71,0.00,,,0.00,Rainwise IP-100,2013-04-20 00:58:00,
2013-04-19 18:03:00,57.6,48.0,29.86,SW,225,7.2,15.6,71,0.00,,,0.00,Rainwise IP-100,2013-04-20 01:03:00,
2013-04-19 18:08:00,57.6,48.0,29.86,SW,225,10.5,14.0,71,0.00,,,0.00,Rainwise IP-100,2013-04-20 01:08:00,
2013-04-19 18:13:00,58.1,48.0,29.86,SW,225,11.9,13.3,70,0.00,,,0.00,Rainwise IP-100,2013-04-20 01:13:00,
2013-04-19 18:18:00,58.3,48.0,29.86,SW,225,13.5,16.3,70,0.00,,,0.00,Rainwise IP-100,2013-04-20 01:18:00,
2013-04-19 18:23:00,57.9,49.0,29.86,WSW,247,8.2,15.6,71,0.00,,,0.00,Rainwise IP-100,2013-04-20 01:23:00,
2013-04-19 18:28:00,58.1,49.0,29.86,SSW,202,4.7,13.8,71,0.00,,,0.00,Rainwise IP-100,2013-04-20 01:28:00,
2013-04-19 18:33:00,58.6,49.0,29.86,SSW,202,7.5,14.7,70,0.00,,,0.00,Rainwise IP-100,2013-04-20 01:33:00,
2013-04-19 18:38:00,58.5,49.0,29.86,SSW,202,11.0,14.2,70,0.00,,,0.00,Rainwise IP-100,2013-04-20 01:38:00,
2013-04-19 18:43:00,58.5,49.0,29.85,SW,225,7.9,15.2,70,0.00,,,0.00,Rainwise IP-100,2013-04-20 01:43:00,
2013-04-19 18:48:00,58.9,49.0,29.85,SW,225,6.5,11.0,69,0.00,,,0.00,Rainwise IP-100,2013-04-20 01:48:00,
2013-04-19 18:53:00,59.6,49.0,29.84,SW,225,7.0,9.1,68,0.00,,,0.00,Rainwise IP-100,2013-04-20 01:53:00,
2013-04-19 18:58:00,59.9,49.0,29.85,SW,225,4.0,12.6,67,0.00,,,0.00,Rainwise IP-100,2013-04-20 01:58:00,
2013-04-19 19:03:00,60.0,49.0,29.84,WSW,247,7.5,13.1,67,0.00,,,0.00,Rainwise IP-100,2013-04-20 02:03:00,
2013-04-19 19:08:00,60.2,48.0,29.84,SW,225,3.7,14.5,66,0.00,,,0.00,Rainwise IP-100,2013-04-20 02:08:00,
2013-04-19 19:13:00,60.3,48.0,29.84,SW,225,5.8,12.8,65,0.00,,,0.00,Rainwise IP-100,2013-04-20 02:13:00,
2013-04-19 19:18:00,60.6,48.0,29.84,SW,225,7.2,12.8,65,0.00,,,0.00,Rainwise IP-100,2013-04-20 02:18:00,
2013-04-19 19:23:00,60.5,48.0,29.84,SSW,202,7.5,11.4,65,0.00,,,0.00,Rainwise IP-100,2013-04-20 02:23:00,
2013-04-19 19:28:00,60.2,48.0,29.84,SW,225,10.3,10.5,65,0.00,,,0.00,Rainwise IP-100,2013-04-20 02:28:00,
2013-04-19 19:33:00,59.8,48.0,29.84,SSW,202,9.8,11.4,66,0.00,,,0.00,Rainwise IP-100,2013-04-20 02:33:00,
2013-04-19 19:38:00,59.3,48.0,29.84,SW,225,7.0,11.9,67,0.00,,,0.00,Rainwise IP-100,2013-04-20 02:38:00,
2013-04-19 19:43:00,59.0,48.0,29.84,SSW,202,5.1,8.4,68,0.00,,,0.00,Rainwise IP-100,2013-04-20 02:43:00,
2013-04-19 19:48:00,58.9,48.0,29.84,SSW,202,5.4,7.9,68,0.00,,,0.00,Rainwise IP-100,2013-04-20 02:48:00,
2013-04-19 19:53:00,58.7,49.0,29.84,WSW,247,2.1,7.9,69,0.00,,,0.00,Rainwise IP-100,2013-04-20 02:53:00,
2013-04-19 19:58:00,58.7,49.0,29.84,SW,225,2.3,6.3,69,0.00,,,0.00,Rainwise IP-100,2013-04-20 02:58:00,
2013-04-19 20:03:00,58.7,49.0,29.84,South,180,4.2,7.2,69,0.00,,,0.00,Rainwise IP-100,2013-04-20 03:03:00,
2013-04-19 20:08:00,58.8,49.0,29.84,SSW,202,2.3,7.5,69,0.00,,,0.00,Rainwise IP-100,2013-04-20 03:08:00,
2013-04-19 20:13:00,59.0,49.0,29.84,SW,225,7.9,10.5,69,0.00,,,0.00,Rainwise IP-100,2013-04-20 03:13:00,
2013-04-19 20:18:00,59.0,48.0,29.83,SW,225,7.5,9.8,68,0.00,,,0.00,Rainwise IP-100,2013-04-20 03:18:00,
2013-04-19 20:23:00,59.0,48.0,29.83,SSW,202,5.8,7.5,68,0.00,,,0.00,Rainwise IP-100,2013-04-20 03:23:00,
2013-04-19 20:28:00,58.9,49.0,29.84,SW,225,3.0,7.0,69,0.00,,,0.00,Rainwise IP-100,2013-04-20 03:28:00,
2013-04-19 20:33:00,58.6,49.0,29.84,SSW,202,5.4,7.2,69,0.00,,,0.00,Rainwise IP-100,2013-04-20 03:33:00,
2013-04-19 20:38:00,58.4,48.0,29.84,SSW,202,3.5,6.8,70,0.00,,,0.00,Rainwise IP-100,2013-04-20 03:38:00,
2013-04-19 20:43:00,58.5,49.0,29.84,SSW,202,4.0,5.6,70,0.00,,,0.00,Rainwise IP-100,2013-04-20 03:43:00,
2013-04-19 20:44:00,58.5,49.0,29.83,SW,225,5.8,5.8,70,0.00,,,0.00,Rainwise IP-100,2013-04-20 03:44:00,
2013-04-19 20:49:00,58.5,49.0,29.84,South,180,2.3,6.5,69,0.00,,,0.00,Rainwise IP-100,2013-04-20 03:49:00,
2013-04-19 20:54:00,58.6,49.0,29.84,SW,225,2.6,6.5,69,0.00,,,0.00,Rainwise IP-100,2013-04-20 03:54:00,
2013-04-19 20:59:00,58.8,49.0,29.84,SW,225,6.3,6.3,69,0.00,,,0.00,Rainwise IP-100,2013-04-20 03:59:00,
2013-04-19 21:01:00,59.0,49.0,29.84,SSW,202,4.4,7.9,69,0.00,,,0.00,Rainwise IP-100,2013-04-20 04:01:00,
2013-04-19 21:06:00,59.1,48.0,29.85,SW,225,2.8,7.2,68,0.00,,,0.00,Rainwise IP-100,2013-04-20 04:06:00,
2013-04-19 21:11:00,59.0,48.0,29.84,SSW,202,5.8,6.5,68,0.00,,,0.00,Rainwise IP-100,2013-04-20 04:11:00,
2013-04-19 21:16:00,59.0,48.0,29.84,SSW,202,4.2,7.9,68,0.00,,,0.00,Rainwise IP-100,2013-04-20 04:16:00,
2013-04-19 21:21:00,58.8,48.0,29.84,SSW,202,2.6,7.2,68,0.00,,,0.00,Rainwise IP-100,2013-04-20 04:21:00,
2013-04-19 21:26:00,58.4,48.0,29.84,SW,225,2.1,7.5,69,0.00,,,0.00,Rainwise IP-100,2013-04-20 04:26:00,
2013-04-19 21:31:00,58.0,48.0,29.84,SSW,202,4.7,6.8,70,0.00,,,0.00,Rainwise IP-100,2013-04-20 04:31:00,
2013-04-19 21:36:00,57.8,48.0,29.84,South,180,4.7,7.9,70,0.00,,,0.00,Rainwise IP-100,2013-04-20 04:36:00,
2013-04-19 21:41:00,57.9,48.0,29.84,SW,225,2.6,7.9,70,0.00,,,0.00,Rainwise IP-100,2013-04-20 04:41:00,
2013-04-19 21:46:00,58.0,48.0,29.84,SSW,202,2.3,6.8,70,0.00,,,0.00,Rainwise IP-100,2013-04-20 04:46:00,
2013-04-19 21:51:00,57.8,48.0,29.84,SW,225,3.3,6.1,70,0.00,,,0.00,Rainwise IP-100,2013-04-20 04:51:00,
2013-04-19 21:56:00,57.5,48.0,29.84,SW,225,1.9,8.4,70,0.00,,,0.00,Rainwise IP-100,2013-04-20 04:56:00,
2013-04-19 22:01:00,57.1,47.5,29.84,SW,225,3.0,6.5,71,0.00,,,0.00,Rainwise IP-100,2013-04-20 05:01:00,
2013-04-19 22:06:00,57.2,48.0,29.84,South,180,4.7,8.4,72,0.00,,,0.00,Rainwise IP-100,2013-04-20 05:06:00,
2013-04-19 22:11:00,57.2,48.0,29.84,SSW,202,2.1,7.9,72,0.00,,,0.00,Rainwise IP-100,2013-04-20 05:11:00,
2013-04-19 22:16:00,57.1,48.0,29.84,SSW,202,3.3,3.5,72,0.00,,,0.00,Rainwise IP-100,2013-04-20 05:16:00,
2013-04-19 22:21:00,56.9,48.0,29.84,West,270,1.6,5.1,72,0.00,,,0.00,Rainwise IP-100,2013-04-20 05:21:00,
2013-04-19 22:26:00,56.6,47.5,29.84,SSW,202,2.3,6.1,72,0.00,,,0.00,Rainwise IP-100,2013-04-20 05:26:00,
2013-04-19 22:31:00,56.2,47.5,29.85,South,180,4.0,7.0,73,0.00,,,0.00,Rainwise IP-100,2013-04-20 05:31:00,
2013-04-19 22:36:00,55.7,47.5,29.84,WSW,247,0.0,7.9,74,0.00,,,0.00,Rainwise IP-100,2013-04-20 05:36:00,
2013-04-19 22:41:00,55.4,47.5,29.84,SSW,202,1.4,6.5,75,0.00,,,0.00,Rainwise IP-100,2013-04-20 05:41:00,
2013-04-19 22:46:00,55.1,47.5,29.84,South,180,8.6,8.6,76,0.00,,,0.00,Rainwise IP-100,2013-04-20 05:46:00,
2013-04-19 22:51:00,54.6,47.5,29.84,SSW,202,1.6,9.1,77,0.00,,,0.00,Rainwise IP-100,2013-04-20 05:51:00,
2013-04-19 22:56:00,54.4,47.5,29.84,SW,225,2.1,7.7,77,0.00,,,0.00,Rainwise IP-100,2013-04-20 05:56:00,
2013-04-19 23:01:00,54.3,48.0,29.84,SSW,202,5.6,7.0,78,0.00,,,0.00,Rainwise IP-100,2013-04-20 06:01:00,
2013-04-19 23:06:00,54.2,47.5,29.84,SW,225,7.0,8.6,78,0.00,,,0.00,Rainwise IP-100,2013-04-20 06:06:00,
2013-04-19 23:11:00,54.3,48.0,29.84,SW,225,6.1,8.4,79,0.00,,,0.00,Rainwise IP-100,2013-04-20 06:11:00,
2013-04-19 23:16:00,54.2,47.5,29.84,SW,225,5.4,10.0,79,0.00,,,0.00,Rainwise IP-100,2013-04-20 06:16:00,
2013-04-19 23:21:00,53.9,47.5,29.84,SW,225,1.2,8.9,79,0.00,,,0.00,Rainwise IP-100,2013-04-20 06:21:00,
2013-04-19 23:26:00,53.5,47.5,29.84,SSW,202,4.9,7.2,80,0.00,,,0.00,Rainwise IP-100,2013-04-20 06:26:00,
2013-04-19 23:31:00,53.2,47.0,29.84,SSW,202,2.6,7.7,80,0.00,,,0.00,Rainwise IP-100,2013-04-20 06:31:00,
2013-04-19 23:36:00,53.3,47.5,29.84,WSW,247,2.6,6.1,81,0.00,,,0.00,Rainwise IP-100,2013-04-20 06:36:00,
2013-04-19 23:41:00,53.5,47.5,29.84,SSE,157,3.5,7.2,80,0.00,,,0.00,Rainwise IP-100,2013-04-20 06:41:00,
2013-04-19 23:46:00,53.6,47.5,29.84,SSW,202,1.9,7.5,80,0.00,,,0.00,Rainwise IP-100,2013-04-20 06:46:00,
2013-04-19 23:51:00,53.6,47.5,29.84,SW,225,2.6,6.3,80,0.00,,,0.00,Rainwise IP-100,2013-04-20 06:51:00,
2013-04-19 23:56:00,53.6,47.5,29.84,SW,225,4.4,6.1,80,0.00,,,0.00,Rainwise IP-100,2013-04-20 06:56:00,